Zanesville, OH

5:58 PM EDT on August 23, 2017 (GMT -0400)
Zanesville Municipal

Weather History for KZZV - April, 2014

Change the Weather History Date:

Saturday, April 26, 2014

  Actual Average Record
Temperature  
Mean Temperature 55 °F 55 °F  
Max Temperature 72 °F 67 °F 87 °F (1990)
Min Temperature 38 °F 43 °F 27 °F (1972)
Degree Days  
Heating Degree Days 10 10  
Month to date heating degree days 335 373  
Since 1 July heating degree days 5793 5317  
Cooling Degree Days 0 0  
Month to date cooling degree days 5 0  
Year to date cooling degree days 5 1  
Growing Degree Days 4 (Base 50)    
Moisture  
Dew Point 40 °F    
Average Humidity 69    
Maximum Humidity 100    
Minimum Humidity 37    
Precipitation  
Precipitation 0.01 in 0.11 in 1.62 in (1998)
Month to date precipitation 3.39 2.99  
Year to date precipitation 7.79 10.82  
Sea Level Pressure  
Sea Level Pressure 29.90 in    
Wind  
Wind Speed 9 mph (WSW)    
Max Wind Speed 22 mph    
Max Gust Speed 28 mph    
Visibility 6 miles    
Events Fog    
T = Trace of Precipitation, MM = Missing Value Source: NWS Daily Summary

Daily Weather History Graph

Daily Weather History Graph

Search for Another Location

Airport or City:

Trip Planner

Search our weather history database for the weather conditions in past years. The results will help you decide how hot, cold, wet, or windy it might be!

Date:

Astronomy

Apr. 26, 2014 Rise Set
Actual Time 6:34 AM EDT 8:17 PM EDT
Civil Twilight 6:05 AM EDT 8:46 PM EDT
Nautical Twilight 5:30 AM EDT 9:21 PM EDT
Astronomical Twilight 4:53 AM EDT 9:58 PM EDT
Moon 4:57 AM EDT (4/26) 5:44 PM EDT (4/26)
Length of Visible Light 14h 40m
Length of Day
13h 42m
Waning Crescent, 8% of the Moon is Illuminated
Apr 26
Waning Crescent
Apr 29
New
May 6
First Quarter
May 14
Full
May 21
Last Quarter

Hourly Weather History & Observations

Time (EDT) Temp. Windchill Dew Point Humidity Pressure Visibility Wind Dir Wind Speed Gust Speed Precip Events Conditions
12:00 AM 39.9 °F - 37.9 °F 93% 29.91 in 0.5 mi Calm Calm - N/A Fog Fog
12:53 AM 39.0 °F 36.8 °F 37.9 °F 96% 29.92 in 1.0 mi South 3.5 mph - N/A   Clear
12:59 AM 39.9 °F - 37.9 °F 93% 29.91 in 2.0 mi Calm Calm - N/A   Clear
1:20 AM 37.9 °F - 36.0 °F 93% 29.91 in 1.2 mi Calm Calm - N/A   Partly Cloudy
1:27 AM 39.0 °F - 36.0 °F 89% 29.90 in 0.2 mi Calm Calm - N/A Fog Fog
1:40 AM 39.0 °F - 37.9 °F 96% 29.90 in 0.8 mi Calm Calm - N/A   Mostly Cloudy
1:53 AM 39.9 °F - 39.0 °F 97% 29.90 in 1.5 mi Calm Calm - N/A   Mostly Cloudy
2:08 AM 41.0 °F 39.0 °F 39.0 °F 93% 29.89 in 2.5 mi South 3.5 mph - N/A   Mostly Cloudy
2:17 AM 39.9 °F - 39.0 °F 97% 29.89 in 1.2 mi Calm Calm - N/A   Scattered Clouds
2:26 AM 39.0 °F 36.8 °F 37.9 °F 96% 29.89 in 0.2 mi SW 3.5 mph - N/A Fog Fog
2:34 AM 39.0 °F - 37.0 °F 93% 29.89 in 0.2 mi Calm Calm - N/A Fog Fog
2:45 AM 39.0 °F - 37.0 °F 93% 29.89 in 0.8 mi Calm Calm - N/A   Mist
2:49 AM 39.2 °F - 37.4 °F 93% 29.88 in 1.2 mi Calm Calm - N/A   Partly Cloudy
2:53 AM 39.9 °F - 37.9 °F 93% 29.89 in 2.5 mi Calm Calm - N/A   Clear
3:03 AM 39.0 °F - 37.9 °F 96% 29.88 in 1.2 mi Calm Calm - N/A   Clear
3:25 AM 37.9 °F - 37.0 °F 97% 29.88 in 2.0 mi Calm Calm - N/A   Partly Cloudy
3:34 AM 39.0 °F - 37.9 °F 96% 29.88 in 1.5 mi Calm Calm - N/A   Scattered Clouds
3:53 AM 39.0 °F - 37.9 °F 96% 29.89 in 3.0 mi Calm Calm - N/A   Overcast
4:53 AM 37.9 °F 34.4 °F 37.0 °F 97% 29.87 in 5.0 mi SE 4.6 mph - N/A   Mostly Cloudy
5:53 AM 43.0 °F 38.8 °F 39.9 °F 89% 29.87 in 10.0 mi South 6.9 mph - N/A   Mostly Cloudy
6:53 AM 48.0 °F - 41.0 °F 77% 29.88 in 10.0 mi SSW 5.8 mph - N/A   Mostly Cloudy
7:53 AM 50.0 °F - 42.1 °F 74% 29.89 in 10.0 mi SW 4.6 mph - 0.00 in   Mostly Cloudy
8:53 AM 53.1 °F - 43.0 °F 69% 29.90 in 10.0 mi WSW 8.1 mph - N/A   Overcast
9:53 AM 53.1 °F - 46.0 °F 77% 29.90 in 10.0 mi SW 8.1 mph - 0.01 in   Overcast
10:53 AM 57.9 °F - 46.9 °F 67% 29.90 in 10.0 mi WSW 11.5 mph - N/A   Mostly Cloudy
11:53 AM 62.1 °F - 48.0 °F 60% 29.89 in 10.0 mi WSW 9.2 mph - N/A   Mostly Cloudy
12:53 PM 66.0 °F - 45.0 °F 47% 29.89 in 10.0 mi West 16.1 mph 21.9 mph N/A   Overcast
1:53 PM 69.1 °F - 45.0 °F 42% 29.87 in 10.0 mi WSW 12.7 mph 28.8 mph N/A   Clear
2:53 PM 69.1 °F - 45.0 °F 42% 29.87 in 10.0 mi West 12.7 mph 25.3 mph N/A   Mostly Cloudy
3:53 PM 70.0 °F - 42.1 °F 36% 29.86 in 10.0 mi West 13.8 mph 23.0 mph N/A   Mostly Cloudy
4:53 PM 70.0 °F - 42.1 °F 36% 29.87 in 10.0 mi WNW 15.0 mph 21.9 mph 0.00 in   Overcast
5:53 PM 68.0 °F - 43.0 °F 40% 29.89 in 10.0 mi NW 12.7 mph - N/A   Overcast
6:53 PM 66.0 °F - 42.1 °F 42% 29.90 in 10.0 mi North 11.5 mph - N/A   Scattered Clouds
7:53 PM 59.0 °F - 37.9 °F 46% 29.93 in 10.0 mi NNE 15.0 mph 21.9 mph N/A   Clear
8:53 PM 55.0 °F - 36.0 °F 49% 29.96 in 10.0 mi NNE 6.9 mph - N/A   Mostly Cloudy
9:53 PM 53.1 °F - 36.0 °F 52% 29.99 in 10.0 mi NNE 8.1 mph - N/A   Mostly Cloudy
10:53 PM 51.1 °F - 33.1 °F 50% 30.01 in 10.0 mi NNE 10.4 mph - N/A   Mostly Cloudy
11:53 PM 48.9 °F - 32.0 °F 52% 30.02 in 10.0 mi NNE 5.8 mph - N/A   Partly Cloudy